SCP
4 4 5 5 5 5 6 6 6 6 5 5 5 4 3 2 3 3 4 5 5 5 5 5 5 4 4 3 2 1 1 1 0 0 0 0 0 0 1 1 1 2 2
5 6 7 7 8 8 7 7 6 5 5 5 4 4 3 2 2 3 3 4 4 4 4 4 5 4 4 3 2 1 1 1 0 0 0 0 0 0 1 1 1 1 1
6 7 9 10 10 9 8 7 6 5 5 5 4 3 3 2 2 2 2 2 2 3 3 3 3 3 3 3 2 1 1 0 0 0 0 0 0 0 0 0 1 1 1
6 7 9 10 9 8 7 5 4 4 5 5 5 4 3 3 2 2 1 1 1 1 1 2 2 2 2 2 1 1 1 1 0 0 0 0 0 0 0 0 0 0 0
5 5 6 7 7 5 4 3 2 3 5 6 5 4 3 3 2 1 1 1 1 1 1 1 1 2 2 2 1 1 1 1 1 0 0 0 0 0 0 0 0 0 0
3 4 4 5 5 4 2 1 2 3 4 6 6 4 3 3 2 1 1 0 0 0 0 1 1 1 2 2 2 1 1 1 1 1 0 0 0 0 0 0 0 0 0
2 2 3 4 4 3 2 1 2 2 4 5 5 4 3 2 2 1 1 0 0 0 0 0 1 1 1 1 2 2 2 1 1 1 0 0 0 0 0 0 0 0 0
1 1 2 3 3 3 2 1 1 2 3 3 4 3 2 2 1 1 1 0 0 0 0 0 0 0 1 1 2 2 2 2 1 1 1 0 0 0 0 0 0 0 0
1 1 1 1 2 2 2 1 1 1 2 2 2 2 1 1 1 1 1 0 0 0 0 0 0 0 0 1 1 2 2 2 1 1 1 0 0 0 0 0 0 0 0
1 1 0 0 1 1 1 1 1 1 1 1 1 1 1 1 0 0 0 0 0 0 0 0 0 0 0 0 1 2 2 2 1 1 1 0 0 0 0 0 0 0 0
1 0 0 0 0 0 0 0 0 0 0 0 0 0 0 0 0 0 0 0 0 0 0 0 0 0 0 0 1 1 2 2 2 1 1 0 0 0 0 0 0 0 0
0 0 0 0 0 0 0 0 0 0 0 0 0 0 0 0 0 0 0 0 0 0 0 0 0 0 0 0 1 1 2 2 2 1 1 0 0 0 0 0 0 0 0
0 0 0 0 0 0 0 0 0 0 0 0 0 0 0 0 0 0 0 0 0 0 0 0 0 0 0 0 0 1 1 2 2 1 1 0 0 0 0 0 0 0 0
0 0 0 0 0 0 0 0 0 0 0 0 0 0 0 0 0 0 0 0 0 0 0 0 0 0 0 0 0 0 1 1 1 1 1 0 0 0 0 0 0 0 0
0 0 0 0 0 0 0 0 0 0 0 0 0 0 0 0 0 0 0 0 0 0 0 0 0 0 0 0 0 0 0 0 1 1 1 0 0 0 0 0 0 0 0
0 0 0 0 0 0 0 0 0 0 0 0 0 0 0 0 0 0 0 0 0 0 0 0 0 0 0 0 0 0 0 0 0 1 0 0 0 0 0 0 0 0 0
0 0 0 0 0 0 0 0 0 0 0 0 0 0 0 0 0 0 0 0 0 0 0 0 0 0 0 0 0 0 0 0 0 0 0 0 0 0 0 0 0 0 0
0 0 0 0 0 0 0 0 0 0 0 0 0 0 0 0 0 0 0 0 0 0 0 0 0 0 0 0 0 0 0 0 0 0 0 0 0 0 0 0 0 0 0
0 0 0 0 0 0 0 0 0 0 0 0 0 0 0 0 0 0 0 0 0 0 0 0 0 0 0 0 0 0 0 0 0 0 0 0 0 0 0 0 0 0 0
0 0 0 0 0 0 0 0 0 0 0 0 0 0 0 0 0 0 0 0 0 0 0 0 0 0 0 0 0 0 0 0 0 0 0 0 0 0 0 0 0 0 0
0 0 0 0 0 0 0 0 0 0 0 0 0 0 0 0 0 0 0 0 0 0 0 0 0 0 0 0 0 0 0 0 0 0 0 0 0 0 0 0 0 0 0
0 0 0 0 0 0 0 0 0 0 0 0 0 0 0 0 0 0 0 0 0 0 0 0 0 0 0 0 0 0 0 0 0 0 0 0 0 0 0 0 0 0 0
0 0 0 0 0 0 0 0 0 0 0 0 0 0 0 0 0 0 0 0 0 0 0 0 0 0 0 0 0 0 0 0 0 0 0 0 0 0 0 0 0 0 0
0 0 0 0 0 0 0 0 0 0 0 0 0 0 0 0 0 0 0 0 0 0 0 0 0 0 0 0 0 0 0 0 0 0 0 0 0 0 0 0 0 0 0
0 0 0 0 0 0 0 0 0 0 0 0 0 0 0 0 0 0 0 0 0 0 0 0 0 0 0 0 0 0 0 0 0 0 0 0 0 0 0 0 0 0 0
0 0 0 0 0 0 0 0 0 0 0 0 0 0 0 0 0 0 0 0 0 0 0 0 0 0 0 0 0 0 0 0 0 0 0 0 0 0 0 0 0 0 0
Wind_Speed
2 2 3 2 2 2 2 2 2 1 1 1 1 1 1 1 1 1 2 2 2 2 2 3 2 2 2 2 2 1 1 1 1 1 2 3 3 2 3 3 2 3 3
3 3 2 2 1 0 1 2 2 2 1 1 1 1 0 1 1 1 2 2 2 2 2 3 3 3 2 2 2 2 1 1 1 1 0 2 3 2 2 2 2 2 2
2 2 2 2 1 1 0 0 2 2 2 1 1 1 1 2 1 2 2 2 2 2 2 2 3 3 3 3 3 3 3 2 1 2 2 1 2 2 2 2 2 2 2
3 2 2 2 2 1 1 0 1 1 1 2 2 2 1 1 2 2 2 2 2 2 2 2 2 2 3 3 3 3 3 3 2 1 2 2 2 2 2 2 2 2 3
3 2 2 2 1 1 1 0 1 1 1 2 2 2 1 1 1 1 1 2 2 2 2 2 2 2 2 3 3 3 3 3 3 2 2 2 2 3 3 3 3 3 3
3 3 3 2 2 2 1 1 1 1 1 1 2 2 2 1 1 1 2 2 2 2 2 2 2 2 2 3 3 3 3 3 3 3 2 2 2 2 3 3 3 4 4
2 3 4 4 3 3 3 2 1 1 1 0 1 1 2 2 2 2 2 2 2 2 3 3 2 2 3 3 3 3 3 4 4 3 3 3 3 2 3 3 3 3 3
3 3 3 3 3 3 3 3 2 2 2 1 1 1 1 1 2 3 3 3 2 3 3 3 3 3 3 3 2 2 3 2 3 3 3 3 3 3 3 3 3 3 3
3 3 3 3 3 3 3 2 3 2 2 2 1 2 1 1 2 3 2 2 3 3 3 3 3 3 3 2 2 2 3 2 3 3 3 3 3 3 3 3 3 3 4
4 4 3 3 3 2 3 3 3 2 1 2 2 2 2 2 2 2 3 3 3 3 3 3 3 3 3 2 2 2 2 2 2 2 3 3 3 3 3 3 3 4 4
3 3 3 3 2 3 4 3 3 3 3 2 2 2 2 2 2 2 3 3 3 3 3 3 3 3 3 2 2 2 2 2 2 2 3 3 3 3 3 3 3 3 4
3 3 3 3 3 3 3 3 3 3 3 2 2 2 3 3 2 3 4 3 3 3 3 3 3 3 3 2 2 2 2 2 3 3 3 4 3 4 3 3 3 4 4
3 3 3 3 3 3 3 3 3 3 3 3 3 3 3 3 3 4 4 3 3 3 3 3 3 3 3 2 3 2 3 3 3 4 4 4 3 4 3 3 4 3 3
2 2 3 3 4 4 4 4 4 4 3 3 3 3 3 3 3 4 4 4 3 3 3 3 3 3 2 3 3 2 3 3 3 4 4 4 4 5 5 4 5 4 4
2 3 3 3 3 4 4 4 4 4 3 3 3 3 3 3 3 3 4 4 3 3 2 2 3 3 2 3 3 3 3 3 4 4 4 5 5 5 5 4 4 4 3
3 3 4 4 4 4 4 5 5 4 3 3 3 3 3 3 4 4 3 4 4 3 2 2 3 4 3 4 4 3 3 3 4 4 5 5 5 6 6 6 5 4 4
4 4 4 4 4 4 4 4 5 4 3 3 3 3 3 3 4 4 3 4 4 3 3 3 3 4 4 5 5 5 2 3 3 4 4 4 4 4 4 4 5 4 4
4 4 4 4 4 4 4 3 4 3 3 3 3 3 3 3 4 3 3 3 3 3 3 4 4 4 5 6 5 4 2 2 3 4 4 4 4 4 3 3 3 4 4
4 4 4 4 4 4 4 3 3 3 4 4 4 4 3 3 4 4 4 3 2 3 3 3 4 3 5 6 6 4 2 2 3 4 3 3 4 5 4 2 3 4 4
3 3 3 3 4 4 3 3 4 4 4 4 4 4 3 3 4 4 4 3 2 3 3 4 3 3 4 6 6 3 1 2 3 3 3 4 4 4 3 2 3 4 4
4 3 3 3 4 4 2 3 3 4 5 4 4 4 3 3 3 3 3 3 3 3 3 4 3 3 3 4 5 4 1 1 2 3 3 3 5 4 3 2 2 4 4
4 4 3 4 4 3 2 3 4 5 4 3 3 3 3 3 3 2 3 3 2 3 3 3 4 3 3 3 4 4 3 1 1 2 3 4 5 5 3 2 2 3 2
4 4 4 5 5 4 3 4 5 4 3 3 3 3 3 3 3 2 3 3 2 2 2 2 3 3 3 3 4 4 4 3 1 2 4 5 5 4 3 4 4 2 2
4 4 4 4 5 5 4 4 5 3 2 2 3 3 2 3 3 2 2 2 2 2 2 2 3 3 3 3 3 3 3 4 3 3 4 4 4 3 3 4 3 2 2
4 3 4 5 6 5 5 4 4 3 2 3 3 2 2 2 3 3 2 3 3 3 3 3 2 2 3 4 3 2 3 3 3 3 2 3 3 3 3 3 3 3 3
4 4 4 5 5 5 5 5 3 2 2 2 3 2 2 2 2 3 4 4 4 5 4 4 3 3 4 4 4 4 4 4 3 2 2 3 3 3 3 4 3 3 3
Wind_Direction
342 18 37 56 86 97 121 140 133 152 149 152 160 177 225 254 268 261 251 245 242 232 220 230 227 212 213 226 225 217 244 258 256 297 310 300 279 279 264 255 256 260 261
356 0 11 19 35 83 139 150 151 162 188 197 169 193 224 269 280 287 283 261 250 245 237 229 229 214 211 233 226 203 207 235 191 175 316 323 325 317 290 286 269 274 273
312 326 351 347 346 334 288 163 185 190 184 145 97 56 37 24 0 325 305 296 282 268 254 244 238 226 211 228 232 209 199 218 227 188 180 196 255 304 306 294 295 293 287
333 324 331 333 321 331 10 127 182 171 163 154 156 156 178 242 250 257 267 295 289 273 260 252 241 237 225 227 235 218 202 196 223 220 215 218 206 239 296 299 292 287 275
336 329 321 298 319 6 15 120 95 109 163 179 183 188 209 234 269 295 293 304 304 296 286 266 249 242 235 234 232 221 210 202 209 212 206 218 229 229 238 278 297 298 275
356 357 354 13 12 15 16 21 67 87 206 185 196 192 201 231 268 292 288 293 296 296 298 290 272 255 245 240 231 222 218 218 214 215 209 207 209 216 221 249 274 286 289
16 15 14 19 19 12 11 16 29 342 333 142 212 221 211 222 245 257 259 272 284 286 288 289 283 275 264 252 230 223 227 219 214 219 224 224 230 220 219 237 260 273 286
13 12 7 13 19 14 6 356 343 324 332 22 327 284 231 229 255 262 258 259 265 271 277 281 276 271 278 278 238 227 239 227 221 230 228 229 235 223 221 223 238 274 280
6 11 5 6 12 14 3 352 341 322 336 349 339 317 307 284 278 284 279 273 274 276 279 281 286 285 281 274 246 229 240 233 232 234 233 235 240 232 232 229 224 231 267
8 6 2 360 0 355 356 3 5 2 345 338 316 313 314 295 285 287 284 281 279 279 284 291 290 292 288 282 261 253 248 238 247 237 236 244 245 240 234 228 226 222 233
353 353 349 342 352 4 8 357 355 356 347 339 331 325 311 295 287 285 284 284 284 285 285 283 282 288 288 287 265 263 256 248 262 261 250 257 252 246 243 233 229 226 223
343 341 345 347 360 7 355 346 341 343 331 328 332 323 319 314 315 305 300 297 291 289 285 287 289 292 292 293 273 274 274 260 264 268 262 264 258 254 252 244 243 238 228
352 353 352 346 346 341 335 334 338 336 338 339 337 332 326 326 318 309 304 304 304 305 298 296 292 291 290 297 285 274 274 266 261 261 260 266 263 261 256 253 253 252 245
340 338 336 336 335 332 331 333 333 334 338 339 330 323 317 315 310 309 308 304 306 306 307 308 299 286 284 293 282 275 272 274 269 263 262 265 256 255 255 253 251 251 255
324 316 319 319 323 329 328 328 324 328 335 338 329 315 312 315 319 320 318 317 316 315 314 323 326 312 295 289 283 277 271 273 281 284 280 272 268 262 254 254 252 250 255
301 305 309 312 314 315 315 320 318 319 329 328 315 310 317 324 324 318 319 324 326 326 334 331 322 314 301 302 296 284 277 279 280 287 289 283 283 281 271 267 260 245 242
288 293 296 294 296 296 295 301 306 317 325 319 314 311 317 323 316 317 329 327 326 333 333 325 323 313 306 308 302 295 282 281 284 285 290 294 296 292 286 287 283 273 255
284 288 291 294 293 291 296 300 310 315 313 315 314 311 318 319 318 323 322 319 319 324 319 315 313 310 315 318 309 306 293 286 290 285 279 285 293 301 294 288 294 290 281
269 272 277 280 288 293 297 309 311 312 314 317 314 310 315 315 318 318 312 309 317 319 316 314 313 315 319 325 324 330 312 307 310 307 304 295 293 307 310 288 291 299 299
288 287 294 302 302 301 308 313 309 311 305 304 306 311 310 303 305 304 304 301 298 304 315 320 319 316 315 326 331 340 312 312 316 321 319 310 308 309 313 270 273 290 298
295 298 297 292 285 292 306 307 307 298 296 304 310 313 313 305 301 310 310 310 314 324 323 320 318 317 318 328 339 347 325 288 309 317 318 321 330 321 314 280 255 267 282
307 309 303 296 293 290 291 299 292 287 299 307 313 317 316 312 323 330 326 323 320 316 319 325 324 327 331 339 342 351 348 333 322 312 315 318 328 332 337 337 322 308 309
292 299 292 295 299 296 280 276 282 291 301 310 311 313 318 322 325 325 320 321 320 318 320 323 318 323 332 333 342 343 346 348 329 309 319 327 336 341 348 355 349 343 347
294 298 303 303 303 301 289 272 282 289 289 290 299 310 316 320 326 320 310 309 313 309 308 311 307 311 321 330 341 339 339 341 331 326 334 339 346 353 350 349 349 343 339
290 288 288 287 290 297 297 294 293 284 279 285 290 294 294 297 309 309 294 284 276 259 256 268 269 286 307 311 324 337 337 336 326 332 347 354 352 356 355 351 348 343 347
288 292 292 292 292 292 293 298 300 285 275 285 287 282 285 286 288 298 313 303 280 300 276 260 258 272 271 296 319 326 325 329 337 15 357 346 342 342 337 334 337 343 345